{"data":{"norad_id":59868,"epoch":"2026-09-21T06:36:06.615648Z","epoch_age_seconds":107505,"freshness":"FRESH","line1":"1 59868U 24098L   26264.27507657 -.00000197  00000+0  23588-5 0  9996","line2":"2 59868  43.0001 213.0795 0001171 269.6946  90.3772 15.27578162132216","mean_motion":15.27578162,"eccentricity":0.0001171,"inclination_deg":43.0001,"raan_deg":213.0795,"arg_perigee_deg":269.6946,"mean_anomaly_deg":90.3772,"bstar":2.3588e-6,"rev_number":13221,"period_min":94.266862136512,"perigee_km":482.25115414207,"apogee_km":483.85804521471,"semimajor_km":6861.1915996784,"source":"CELESTRAK","updated_at":"2026-09-22T09:00:49.102314Z"}}